Location: Burtsch�tz
(51.0528°N, 12.1764°E)
Time: 14:27:46
(UTC+00:00)

IRS-1A Rocket - Pass Details

Date: 29 October 2020
Orbit: 851 x 931 km, 99.2° (Epoch: 28 November)

Event Time Altitude Azimuth Distance (km) Brightness Sun altitude
Exits shadow 18:10:51 46° 67° (ENE) 1,152 4.5 -22.6°
Maximum altitude 18:10:55 46° 65° (ENE) 1,152 4.5 -22.6°
Drops below altitude 10° 18:16:09 10° 354° (N) 2,497 6.8 -23.4°
Sets 18:18:36 0° 348° (NNW) 3,433 7.6 -23.8°
